[[{"header":{"parameterUnit":"m.s-1","parameterCategory":2,"la1":30.2992,"la2":30.254,"lo1":-89.0895,"lo2":-89.0443,"dy":0.0025,"dx":0.0025,"nx":19,"ny":19,"refTime":"2026-04-02T09:00:00:Z","depth":"0","parameterNumber":2,"parameterNumberName":"U-component_of_CURRENTS"},"data":[0,0,0,0.0681,0.0681,0.0656,0.0656,0.0629,0.0629,0,0,0,0,0,0,0,0,0,0,0,0.0692,0.0692,0.0681,0.068,0.0656,0.0656,0.0629,0.0629,0,0,0,0,0,0,0,0,0,0,0,0.0692,0.0692,0.0692,0.068,0.0656,0.0656,0.063,0.0644,0,0,0,0,0,0,0,0,0,0,0.0666,0.0679,0.0692,0.0692,0.068,0.0656,0.0656,0.0645,0.0643,0.0645,0,0.0651,0,0.0643,0.0629,0.0629,0,0,0,0.067,0.068,0.0676,0.0692,0.068,0.0656,0.0664,0.0644,0.0642,0.0643,0.065,0.0649,0.0643,0.0629,0.0629,0.0698,0.0699,0,0,0.0672,0.0682,0.0678,0.0676,0.0687,0.0665,0.0664,0.0643,0.0645,0.065,0.0648,0.0642,0.0628,0.0628,0.0698,0.0699,0,0,0,0.0682,0.0683,0.0679,0.0677,0.0674,0.0665,0.0663,0.0646,0.0646,0.0648,0.0642,0.0628,0.0628,0.0697,0.0698,0.0766,0,0,0,0.0683,0.069,0.068,0.0685,0.0675,0.0659,0.0667,0.0647,0.0644,0.0642,0.0628,0.0628,0.0696,0.0697,0.0762,0.0766,0,0,0,0.0691,0.0691,0.0692,0.0686,0.068,0.0659,0.0657,0.0646,0.0641,0.0629,0.0628,0.0695,0.0697,0.0758,0.0761,0.0853,0,0,0,0.0695,0.0715,0.0693,0.0719,0.068,0.0703,0.0657,0.0663,0.0659,0.0628,0.0696,0.0698,0.0757,0.0758,0.0849,0.0961,0.0989,0,0,0.0724,0.0718,0.0736,0.0716,0.0747,0.0705,0.0743,0.0711,0.0691,0.0699,0.07,0.0763,0.0761,0.0852,0.1078,0.1102,0,0,0,0.0748,0.076,0.0769,0.0779,0.0783,0.0782,0.0759,0.0763,0.0776,0.0699,0.0785,0.0781,0.0837,0.0898,0.0917,0.1007,0.0707,0.0707,0.0707,0.0786,0.0792,0.0813,0.0822,0.0836,0.0841,0.0857,0.0858,0.0834,0.0865,0.0854,0.0988,0.1055,0.107,0.1162,0.0888,0.0888,0.0889,0.0889,0.0816,0.0814,0.0829,0.0847,0.0856,0.088,0.0925,0.0931,0.1001,0.0944,0.0997,0.0987,0.1096,0.1186,0.0893,0.0893,0.0892,0.0892,0.0891,0.0814,0.0808,0.0822,0.0835,0.0857,0.0883,0.0957,0.0996,0.1046,0.1097,0.1192,0.1192,0.1256,0.1144,0.1144,0.1145,0.1145,0.1145,0.1146,0.0784,0.0798,0.0799,0.0817,0.0826,0.0872,0.0979,0.1068,0.1218,0.1268,0.1269,0.1332,0.1066,0.1039,0.1153,0.1151,0.1151,0.115,0.1149,0.0759,0.076,0.0769,0.0776,0.0815,0.089,0.1005,0.1258,0.1375,0.1482,0.1601,0.1381,0.1372,0.1357,0.1338,0.1522,0.1522,0.1522,0.1522,0.0727,0.0733,0.0738,0.0755,0.0804,0.0896,0.1123,0.1354,0.1646,0.1791,0.1805,0.1783,0.1764,0.1774,0.175,0.1737,0.2018,0.2018,0.2019,0.07,0.0711,0.0709,0.0736,0.079,0.0927,0.1142,0.1422,0.1856,0.2042,0.1914,0.1893,0.1856,0.1818,0.1821,0.178,0.1752,0,0]},{"header":{"parameterUnit":"m.s-1","parameterCategory":2,"la1":30.2992,"la2":30.254,"lo1":-89.0895,"lo2":-89.0443,"dy":0.0025,"dx":0.0025,"nx":19,"ny":19,"refTime":"2026-04-02T09:00:00:Z","depth":"0","parameterNumber":3,"parameterNumberName":"V-component_of_CURRENTS"},"data":[0,0,0,-0.024,-0.0241,-0.028,-0.028,-0.03,-0.03,0,0,0,0,0,0,0,0,0,0,0,-0.0224,-0.0225,-0.024,-0.0241,-0.028,-0.028,-0.03,-0.03,0,0,0,0,0,0,0,0,0,0,0,-0.0224,-0.0224,-0.0225,-0.0241,-0.028,-0.028,-0.03,-0.0276,0,0,0,0,0,0,0,0,0,0,-0.0241,-0.0232,-0.0224,-0.0225,-0.0241,-0.028,-0.028,-0.0275,-0.0278,-0.0275,0,-0.0286,0,-0.0297,-0.0301,-0.0301,0,0,0,-0.0235,-0.023,-0.0244,-0.0225,-0.0242,-0.028,-0.0261,-0.0277,-0.0279,-0.0278,-0.0286,-0.0288,-0.0297,-0.0301,-0.0301,-0.0264,-0.0264,0,0,-0.0233,-0.0226,-0.0242,-0.0246,-0.0258,-0.0259,-0.0262,-0.0279,-0.0281,-0.0287,-0.0288,-0.0297,-0.0301,-0.0301,-0.0265,-0.0264,0,0,0,-0.0231,-0.0225,-0.0239,-0.0245,-0.0256,-0.0261,-0.0264,-0.028,-0.0286,-0.0289,-0.0298,-0.0301,-0.0302,-0.0265,-0.0264,-0.0211,0,0,0,-0.0229,-0.0224,-0.0238,-0.0234,-0.0256,-0.0273,-0.0265,-0.0285,-0.0287,-0.0297,-0.0301,-0.0302,-0.0266,-0.0265,-0.0214,-0.0175,0,0,0,-0.0221,-0.0223,-0.023,-0.0233,-0.0254,-0.0273,-0.028,-0.0286,-0.0293,-0.0301,-0.0302,-0.0266,-0.0265,-0.0216,-0.0179,-0.0138,0,0,0,-0.0209,-0.021,-0.023,-0.0231,-0.0254,-0.0251,-0.028,-0.0283,-0.0287,-0.0301,-0.0266,-0.0264,-0.0217,-0.0182,-0.0141,-0.0069,-0.005,0,0,-0.02,-0.0209,-0.0207,-0.0226,-0.0213,-0.0244,-0.0216,-0.0241,-0.0264,-0.0259,-0.0258,-0.0213,-0.018,-0.0138,0.0004,0.0022,0,0,0,-0.0197,-0.019,-0.0192,-0.0191,-0.0201,-0.018,-0.0209,-0.0209,-0.0204,-0.0263,-0.0202,-0.0182,-0.0158,-0.0121,-0.0107,-0.0157,-0.0258,-0.0259,-0.0259,-0.0154,-0.0159,-0.014,-0.0139,-0.0133,-0.0134,-0.0115,-0.0115,-0.0162,-0.0144,-0.0131,-0.005,-0.001,0.0001,-0.0051,-0.0131,-0.0131,-0.0131,-0.013,-0.0108,-0.0089,-0.0086,-0.007,-0.0055,-0.0034,-0.0016,-0.0033,-0.0007,-0.0058,-0.0038,-0.0057,0.002,-0.0041,-0.0127,-0.0127,-0.0128,-0.0128,-0.0129,-0.0065,-0.0055,-0.0051,-0.0019,0.0024,0.003,0.0096,0.008,0.0056,0.0078,0.0099,0.0099,0.0038,0.0073,0.0073,0.0073,0.0074,0.0074,0.0074,-0.0024,-0.0016,0.0009,0.0038,0.0065,0.0114,0.0155,0.0182,0.0198,0.0183,0.0183,0.0074,0.0012,-0.0004,0.008,0.0079,0.0078,0.0078,0.0077,0.003,0.002,0.0062,0.0086,0.0158,0.0254,0.0278,0.0362,0.0368,0.0395,0.0255,0.024,0.0233,0.0222,0.0211,0.0346,0.0346,0.0346,0.0346,0.0062,0.0061,0.0115,0.0166,0.0243,0.0323,0.0501,0.0574,0.0492,0.0435,0.0335,0.029,0.0282,0.0272,0.026,0.0248,0.0389,0.0389,0.0388,0.0098,0.0105,0.0154,0.0194,0.0282,0.0417,0.0625,0.0809,0.0626,0.038,0.0253,0.0251,0.0169,0.0159,0.0127,0.0114,0.0088,0,0]}],[{"header":{"parameterUnit":"m.s-1","parameterCategory":2,"la1":30.2992,"la2":30.254,"lo1":-89.0895,"lo2":-89.0443,"dy":0.0025,"dx":0.0025,"nx":19,"ny":19,"refTime":"2026-04-02T09:00:00:Z","depth":"2","parameterNumber":2,"parameterNumberName":"U-component_of_CURRENTS"},"data":[0,0,0,0.0801,0.0801,0.0782,0.0782,0.0768,0.0768,0,0,0,0,0,0,0,0,0,0,0,0.0809,0.0809,0.0801,0.0801,0.0782,0.0782,0.0768,0.0768,0,0,0,0,0,0,0,0,0,0,0,0.0809,0.0809,0.0809,0.0801,0.0782,0.0782,0.0768,0.0778,0,0,0,0,0,0,0,0,0,0,0.0794,0.0801,0.0809,0.0809,0.08,0.0782,0.0782,0.0778,0.0777,0.0782,0,0.0786,0,0.078,0.0768,0.0768,0,0,0,0.0792,0.0802,0.08,0.0809,0.08,0.0782,0.0788,0.0777,0.0777,0.0781,0.0786,0.0785,0.078,0.0768,0.0768,0.0847,0.0848,0,0,0.0793,0.0801,0.0801,0.08,0.0806,0.0789,0.0788,0.0777,0.0778,0.0786,0.0785,0.078,0.0768,0.0768,0.0846,0.0847,0,0,0,0.0802,0.0801,0.0799,0.0801,0.0798,0.0789,0.0787,0.0779,0.0779,0.0785,0.078,0.0768,0.0768,0.0845,0.0847,0.0907,0,0,0,0.0802,0.0807,0.08,0.0803,0.0799,0.0787,0.0789,0.078,0.0778,0.078,0.0768,0.0768,0.0844,0.0846,0.0904,0.0907,0,0,0,0.0808,0.0807,0.0809,0.0804,0.08,0.0787,0.0786,0.0779,0.0776,0.0768,0.0768,0.0844,0.0846,0.09,0.0903,0.0992,0,0,0,0.081,0.0829,0.0809,0.0835,0.08,0.0828,0.0786,0.0796,0.0795,0.0768,0.0844,0.0846,0.0899,0.09,0.0988,0.1078,0.1103,0,0,0.0837,0.0832,0.085,0.0833,0.0869,0.083,0.0873,0.0846,0.083,0.0845,0.0846,0.0905,0.0902,0.0991,0.1196,0.1217,0,0,0,0.0862,0.0873,0.0884,0.0897,0.0907,0.0912,0.0894,0.0899,0.0916,0.084,0.093,0.0926,0.098,0.1027,0.1045,0.0856,0.0856,0.0856,0.0856,0.0892,0.0903,0.0929,0.0944,0.0963,0.0973,0.0992,0.0998,0.0975,0.1005,0.0995,0.1125,0.1177,0.1191,0.1029,0.1029,0.1029,0.1029,0.103,0.0923,0.0925,0.0947,0.0971,0.0986,0.1014,0.1064,0.1069,0.1138,0.1083,0.1135,0.1112,0.1214,0.1035,0.1034,0.1033,0.1033,0.1032,0.1032,0.092,0.0917,0.0934,0.0958,0.0986,0.1016,0.1091,0.113,0.1179,0.1228,0.1307,0.1307,0.1155,0.1271,0.1271,0.1272,0.1272,0.1272,0.1273,0.0887,0.0907,0.0913,0.094,0.0952,0.1002,0.1108,0.1194,0.1332,0.1376,0.1378,0.1206,0.1198,0.1171,0.1279,0.1278,0.1277,0.1277,0.1276,0.0864,0.0867,0.0883,0.0894,0.0943,0.1015,0.1128,0.136,0.1473,0.1569,0.1485,0.1478,0.1469,0.1456,0.1435,0.1606,0.1606,0.1606,0.1606,0.0832,0.084,0.0854,0.0878,0.0933,0.102,0.1219,0.1398,0.1559,0.1609,0.1608,0.1557,0.1545,0.1536,0.152,0.1497,0.1685,0.1684,0.1684,0.0808,0.0822,0.0825,0.0859,0.092,0.1047,0.1217,0.1371,0.1556,0.1676,0.1512,0.1632,0.1553,0.1537,0.1513,0.1492,0.1452,0,0]},{"header":{"parameterUnit":"m.s-1","parameterCategory":2,"la1":30.2992,"la2":30.254,"lo1":-89.0895,"lo2":-89.0443,"dy":0.0025,"dx":0.0025,"nx":19,"ny":19,"refTime":"2026-04-02T09:00:00:Z","depth":"2","parameterNumber":3,"parameterNumberName":"V-component_of_CURRENTS"},"data":[0,0,0,-0.0285,-0.0286,-0.032,-0.032,-0.034,-0.034,0,0,0,0,0,0,0,0,0,0,0,-0.0271,-0.0271,-0.0285,-0.0286,-0.032,-0.032,-0.034,-0.034,0,0,0,0,0,0,0,0,0,0,0,-0.0271,-0.0271,-0.0272,-0.0286,-0.032,-0.032,-0.034,-0.0319,0,0,0,0,0,0,0,0,0,0,-0.0288,-0.0279,-0.0271,-0.0272,-0.0286,-0.032,-0.032,-0.0318,-0.032,-0.0319,0,-0.033,0,-0.0339,-0.0342,-0.0342,0,0,0,-0.028,-0.0277,-0.029,-0.0272,-0.0287,-0.032,-0.0303,-0.0319,-0.0322,-0.0322,-0.033,-0.0331,-0.0339,-0.0342,-0.0342,-0.0314,-0.0313,0,0,-0.0278,-0.0272,-0.0288,-0.0291,-0.0302,-0.0302,-0.0304,-0.0321,-0.0323,-0.033,-0.0332,-0.0339,-0.0342,-0.0342,-0.0314,-0.0314,0,0,0,-0.0277,-0.0271,-0.0284,-0.029,-0.0301,-0.0303,-0.0306,-0.0322,-0.0328,-0.0332,-0.034,-0.0342,-0.0342,-0.0315,-0.0314,-0.0267,0,0,0,-0.0275,-0.0271,-0.0283,-0.0279,-0.0301,-0.0315,-0.0307,-0.0327,-0.0329,-0.034,-0.0342,-0.0342,-0.0315,-0.0314,-0.0269,-0.0231,0,0,0,-0.0268,-0.027,-0.0277,-0.0279,-0.0297,-0.0315,-0.0321,-0.0327,-0.0334,-0.0342,-0.0343,-0.0316,-0.0315,-0.0271,-0.0235,-0.0192,0,0,0,-0.0257,-0.0257,-0.0276,-0.0276,-0.0297,-0.0295,-0.0321,-0.0324,-0.0328,-0.0342,-0.0315,-0.0314,-0.0272,-0.0238,-0.0195,-0.0128,-0.011,0,0,-0.0246,-0.0256,-0.0253,-0.0271,-0.0261,-0.029,-0.0266,-0.0289,-0.0309,-0.0308,-0.0308,-0.0268,-0.0236,-0.0193,-0.0066,-0.0049,0,0,0,-0.0242,-0.0237,-0.0238,-0.0239,-0.0249,-0.0234,-0.0261,-0.0262,-0.0259,-0.0309,-0.0259,-0.024,-0.0215,-0.018,-0.0167,-0.0309,-0.0309,-0.0309,-0.0309,-0.0202,-0.0208,-0.0192,-0.0195,-0.0191,-0.0195,-0.0179,-0.0182,-0.0224,-0.0208,-0.0196,-0.012,-0.0083,-0.0072,-0.0198,-0.0198,-0.0198,-0.0198,-0.0198,-0.0161,-0.0145,-0.0146,-0.0133,-0.0125,-0.0108,-0.0095,-0.0111,-0.0085,-0.0133,-0.0112,-0.0124,-0.0055,-0.0194,-0.0195,-0.0195,-0.0196,-0.0196,-0.0196,-0.0121,-0.0114,-0.0111,-0.0087,-0.0053,-0.005,0.0011,-0.0005,-0.0026,-0.0004,0.0022,0.0021,-0.0086,-0.0005,-0.0005,-0.0004,-0.0004,-0.0004,-0.0003,-0.0083,-0.0078,-0.0057,-0.0036,-0.0013,0.0033,0.0071,0.0098,0.0115,0.0099,0.0099,-0.0055,-0.0061,-0.0074,0.0002,0.0001,0.0,-0.0,-0.0,-0.0034,-0.0043,-0.0007,0.0014,0.0076,0.0166,0.0192,0.0276,0.0283,0.0309,0.0161,0.0155,0.0151,0.014,0.0133,0.0258,0.0258,0.0258,0.0258,-0.0005,-0.0006,0.0042,0.0088,0.016,0.0233,0.0393,0.0434,0.0391,0.0337,0.0333,0.0295,0.0284,0.0283,0.0269,0.0262,0.0421,0.0421,0.0421,0.0026,0.0034,0.0079,0.0115,0.0197,0.0323,0.0495,0.0569,0.0476,0.0423,0.0317,0.0278,0.0209,0.0196,0.018,0.0163,0.0146,0,0]}],[{"header":{"parameterUnit":"m.s-1","parameterCategory":2,"la1":30.2992,"la2":30.254,"lo1":-89.0895,"lo2":-89.0443,"dy":0.0025,"dx":0.0025,"nx":19,"ny":19,"refTime":"2026-04-02T09:00:00:Z","depth":"4","parameterNumber":2,"parameterNumberName":"U-component_of_CURRENTS"},"data":[0,0,0,0.081,0.0813,0.0957,0.0957,0.1123,0.1124,0,0,0,0,0,0,0,0,0,0,0,0.0765,0.0766,0.081,0.0813,0.0957,0.0957,0.1123,0.1124,0,0,0,0,0,0,0,0,0,0,0,0.0765,0.0766,0.0767,0.0813,0.0956,0.0957,0.1123,0.1021,0,0,0,0,0,0,0,0,0,0,0.0885,0.0845,0.0766,0.0767,0.0814,0.0956,0.0957,0.1017,0.1028,0.1049,0,0.1071,0,0.1095,0.1134,0.1134,0,0,0,0.0825,0.0836,0.0869,0.0767,0.0815,0.0956,0.0895,0.1023,0.1035,0.1063,0.1074,0.108,0.1097,0.1135,0.1136,0.1243,0.1244,0,0,0.0817,0.0799,0.0861,0.0877,0.0853,0.089,0.0899,0.1031,0.1046,0.1074,0.1084,0.11,0.1136,0.1137,0.1243,0.1243,0,0,0,0.0786,0.0793,0.0824,0.087,0.0894,0.0894,0.0905,0.1041,0.105,0.1086,0.1102,0.1137,0.1138,0.1243,0.1243,0.1259,0,0,0,0.0782,0.0774,0.082,0.0812,0.0891,0.0972,0.0912,0.1041,0.1056,0.1101,0.1137,0.114,0.1243,0.1243,0.1259,0.1271,0,0,0,0.0759,0.0772,0.0787,0.081,0.0866,0.097,0.0988,0.1045,0.1065,0.1135,0.114,0.1243,0.1243,0.1258,0.127,0.1301,0,0,0,0.0737,0.0768,0.0787,0.083,0.0865,0.0945,0.0988,0.1077,0.1138,0.1137,0.1243,0.1243,0.1258,0.1269,0.13,0.1167,0,0,0,0.076,0.077,0.0794,0.0814,0.0877,0.0926,0.1,0.1107,0.1144,0.1201,0.1204,0.1259,0.127,0.1301,0.1183,0,0,0,0,0.0791,0.0807,0.0829,0.0874,0.0929,0.0993,0.108,0.1114,0.1201,0.1178,0.126,0.1266,0.1286,0.1204,0.1245,0.1245,0.1245,0.1245,0.1245,0.0781,0.0816,0.0862,0.0913,0.0963,0.1054,0.1111,0.1172,0.1206,0.1243,0.128,0.1315,0.1228,0.1277,0.1277,0.1277,0.1277,0.1277,0.1277,0.0802,0.0828,0.0881,0.0941,0.1002,0.107,0.1158,0.1201,0.1283,0.1286,0.1304,0.1226,0.1279,0.1278,0.1278,0.1278,0.1278,0.1278,0.1278,0.0783,0.0804,0.0854,0.0936,0.1015,0.1094,0.1166,0.1242,0.1305,0.1341,0.1275,0.1335,0.1334,0.1365,0.1365,0.1365,0.1365,0.1365,0.1366,0.0743,0.0795,0.0844,0.0931,0.0982,0.1063,0.1187,0.1237,0.1316,0.1286,0.1364,0.1345,0.1342,0.134,0.1369,0.1368,0.1368,0.1367,0.1367,0.0722,0.075,0.0811,0.0863,0.0964,0.1006,0.1129,0.1195,0.1244,0.1251,0.1253,0.1258,0.1246,0.1246,0.124,0.124,0.1238,0.1237,0,0.0694,0.0716,0.0791,0.0848,0.0896,0.0973,0.1002,0.1076,0.115,0.1116,0.1252,0.1253,0.1256,0.1239,0.1236,0.1227,0,0,0,0.068,0.0709,0.0746,0.0816,0.0863,0.0917,0.1005,0.1008,0.1128,0.1139,0.1197,0.1207,0.1298,0.1377,0.1371,0.1367,0.1364,0,0]},{"header":{"parameterUnit":"m.s-1","parameterCategory":2,"la1":30.2992,"la2":30.254,"lo1":-89.0895,"lo2":-89.0443,"dy":0.0025,"dx":0.0025,"nx":19,"ny":19,"refTime":"2026-04-02T09:00:00:Z","depth":"4","parameterNumber":3,"parameterNumberName":"V-component_of_CURRENTS"},"data":[0,0,0,-0.0046,-0.0047,-0.008,-0.008,-0.0136,-0.0137,0,0,0,0,0,0,0,0,0,0,0,-0.0039,-0.0039,-0.0046,-0.0047,-0.008,-0.008,-0.0136,-0.0137,0,0,0,0,0,0,0,0,0,0,0,-0.0039,-0.0039,-0.004,-0.0047,-0.008,-0.008,-0.0136,-0.011,0,0,0,0,0,0,0,0,0,0,-0.0077,-0.007,-0.0039,-0.004,-0.0047,-0.0079,-0.008,-0.0108,-0.0111,-0.0123,0,-0.0126,0,-0.0128,-0.014,-0.014,0,0,0,-0.0055,-0.0068,-0.0069,-0.004,-0.0047,-0.0079,-0.0067,-0.011,-0.0113,-0.0127,-0.0127,-0.0129,-0.0129,-0.014,-0.0141,-0.0192,-0.0192,0,0,-0.0053,-0.0053,-0.0067,-0.0071,-0.0054,-0.0066,-0.0068,-0.0112,-0.0119,-0.0127,-0.013,-0.013,-0.0141,-0.0141,-0.0192,-0.0192,0,0,0,-0.0042,-0.0052,-0.0053,-0.0069,-0.0072,-0.0067,-0.0069,-0.0117,-0.0116,-0.0131,-0.0131,-0.0141,-0.0142,-0.0192,-0.0192,-0.0195,0,0,0,-0.0042,-0.0045,-0.0052,-0.0054,-0.007,-0.0094,-0.0074,-0.0113,-0.0118,-0.013,-0.0141,-0.0142,-0.0192,-0.0192,-0.0195,-0.0178,0,0,0,-0.0038,-0.0045,-0.0047,-0.0054,-0.0063,-0.0093,-0.0094,-0.0114,-0.0117,-0.014,-0.0142,-0.0192,-0.0192,-0.0194,-0.0178,-0.013,0,0,0,-0.0041,-0.0035,-0.0047,-0.0043,-0.0063,-0.0075,-0.0094,-0.0129,-0.0153,-0.0141,-0.0192,-0.0192,-0.0194,-0.0178,-0.0131,-0.006,0,0,0,-0.0029,-0.0034,-0.003,-0.0041,-0.005,-0.0071,-0.0096,-0.0146,-0.0161,-0.0179,-0.018,-0.0195,-0.0178,-0.013,-0.0088,0,0,0,0,-0.0023,-0.003,-0.0031,-0.0045,-0.0053,-0.0085,-0.0127,-0.0144,-0.0185,-0.0173,-0.0203,-0.0192,-0.0162,-0.0124,-0.0194,-0.0194,-0.0194,-0.0194,-0.0194,-0.0026,-0.0031,-0.004,-0.0057,-0.007,-0.0111,-0.0132,-0.0165,-0.0185,-0.021,-0.0202,-0.0176,-0.014,-0.0219,-0.0219,-0.0219,-0.0219,-0.0219,-0.0219,-0.0029,-0.0038,-0.006,-0.007,-0.0098,-0.0125,-0.0154,-0.0177,-0.0178,-0.0208,-0.0179,-0.0141,-0.022,-0.022,-0.022,-0.022,-0.022,-0.022,-0.022,-0.0039,-0.0044,-0.0056,-0.008,-0.0109,-0.0135,-0.0119,-0.0154,-0.0168,-0.0158,-0.0087,-0.0158,-0.0146,-0.0137,-0.0137,-0.0137,-0.0136,-0.0136,-0.0136,-0.0039,-0.0052,-0.0061,-0.0086,-0.0093,-0.0095,-0.0094,-0.0067,-0.0086,-0.0064,-0.0144,-0.0147,-0.015,-0.0141,-0.0132,-0.0133,-0.0133,-0.0134,-0.0134,-0.0047,-0.0045,-0.005,-0.0055,-0.0053,-0.0039,-0.0033,0.0038,0.0081,0.0104,-0.0002,-0.0009,0.0013,0.0007,0.0023,0.008,0.0081,0.0082,0,-0.0045,-0.0047,-0.0038,-0.0026,0.0005,-0.0001,0.0098,0.0134,0.0118,0.0106,0.0061,-0.0064,-0.0068,-0.0049,-0.0052,-0.0037,0,0,0,-0.0049,-0.0042,-0.0029,-0.0011,0.0027,0.0094,0.0128,0.0161,0.0099,0.0187,0.0108,0.0101,-0.0011,-0.012,-0.0102,-0.0106,-0.0089,0,0]}]]